GEFSNE_500_meanwind_000.txt.gz
Wind_Speed
65 65 66 69 73 79 84 90 95 97 94 98 106 112 118 121 120 118 113 107 101 96 92 87 84 82 82 82 82 83 83 84 86 85 84 86 90 94
65 67 71 75 80 85 90 95 101 107 107 107 114 119 120 116 106 98 92 88 83 79 78 79 80 79 78 77 76 76 75 76 78 78 79 81 83 85
68 72 77 82 86 90 96 102 108 115 120 117 117 112 102 94 84 78 75 76 77 77 78 79 78 75 72 71 71 70 71 71 71 72 73 75 77 78
74 79 83 87 92 98 104 110 115 120 121 116 100 85 76 72 70 67 68 72 77 77 73 69 67 66 66 67 68 68 69 69 67 66 67 69 70 70
80 85 90 94 100 106 112 117 120 116 106 93 79 69 65 63 64 65 68 71 69 63 59 59 57 57 57 59 60 61 62 62 63 63 64 66 67 67
86 92 98 103 108 114 118 119 113 98 85 77 71 65 62 62 64 66 65 59 52 48 45 44 46 49 51 52 51 51 52 53 55 59 62 65 67 67
92 99 105 110 115 119 117 107 95 86 81 77 73 70 67 67 69 68 59 49 40 40 42 42 47 49 50 47 42 39 39 41 45 51 56 60 64 64
99 106 111 115 118 112 99 91 89 87 83 78 75 71 68 67 66 58 51 44 36 37 45 43 49 46 42 36 30 25 22 22 26 31 38 46 53 59
107 112 115 115 106 95 90 88 84 80 76 72 67 63 60 57 52 47 45 40 35 35 39 36 37 34 30 22 15 10 12 16 19 23 27 32 39 49
110 115 112 100 90 88 86 80 75 68 60 53 49 47 45 43 42 40 35 29 27 29 29 24 27 23 16 10 6 8 15 22 27 28 27 28 32 39
113 108 96 88 85 81 75 69 60 47 38 32 31 33 34 36 36 31 28 25 24 28 28 24 22 17 12 8 8 11 17 25 29 29 29 30 28 32
103 90 84 81 75 69 62 53 39 30 25 22 23 25 28 30 30 30 27 25 22 24 28 23 20 16 11 11 12 13 17 22 27 26 21 17 15 19
88 80 75 70 65 55 46 38 31 24 20 19 19 21 24 26 26 25 25 22 21 24 26 24 22 19 13 12 17 17 15 18 23 18 15 9 2 6
79 72 66 61 52 40 34 28 24 21 19 17 19 22 23 22 22 21 22 25 28 29 28 25 19 17 15 14 11 9 7 11 14 12 12 9 12 17
70 63 56 48 39 31 26 23 20 17 16 18 21 22 21 19 19 20 22 26 32 33 29 23 17 14 12 6 5 3 1 6 11 13 11 5 15 23
61 53 46 41 32 24 24 21 17 17 16 18 20 20 20 19 18 18 21 24 27 28 25 21 18 16 11 7 4 3 4 6 9 9 7 7 17 24
51 44 37 28 24 28 25 20 19 18 18 19 19 20 20 19 18 18 20 23 25 23 22 19 19 14 10 10 9 8 9 10 15 20 20 15 15 23
42 33 24 24 26 24 20 20 19 18 19 20 20 19 18 18 18 17 19 22 22 20 19 17 16 15 14 14 14 15 15 16 18 20 20 21 19 17
33 24 25 26 24 20 20 20 21 22 22 22 21 20 18 17 16 16 17 19 20 17 16 16 15 14 16 18 18 18 18 17 21 22 20 24 22 16
25 25 25 23 21 21 21 22 22 23 23 22 20 19 17 16 15 15 16 16 16 14 12 13 14 13 13 16 17 16 17 17 19 20 16 17 17 14
24 24 23 22 22 21 20 20 19 19 20 20 18 16 15 14 12 12 12 13 12 12 10 8 10 11 10 15 17 15 16 17 18 18 19 18 18 17
22 22 21 20 19 20 21 20 19 19 19 19 18 16 15 12 10 9 10 10 9 9 9 7 6 8 9 14 19 16 15 15 14 19 21 24 26 26
20 18 18 19 20 21 21 21 20 18 16 17 17 16 14 11 9 9 9 8 7 6 5 6 5 7 9 12 16 17 15 15 16 17 19 23 30 30

GEFSNE_500_meanwind_006.txt.gz
Wind_Speed
65 67 71 75 75 73 73 75 78 79 79 81 86 93 100 106 112 118 122 126 127 125 120 114 107 101 95 91 88 86 85 85 86 87 87 89 92 95
67 71 75 76 74 74 76 79 83 86 88 90 96 103 110 117 123 126 126 122 116 110 104 97 89 81 76 73 72 70 70 71 74 75 77 80 83 84
71 75 75 75 75 77 79 83 89 96 100 101 106 111 117 119 118 113 108 103 99 96 92 87 81 76 72 69 66 65 66 67 68 69 70 72 74 76
74 75 74 75 76 79 85 91 98 104 109 112 113 115 112 105 98 92 88 86 83 79 75 71 68 66 64 63 62 62 63 63 63 61 59 59 60 63
74 74 74 76 79 85 92 99 105 110 114 117 114 105 95 85 76 69 65 61 58 55 53 51 51 50 51 52 54 55 56 56 55 53 50 49 50 53
73 74 76 81 87 93 99 106 111 113 112 108 99 87 73 61 55 50 44 41 39 39 38 37 37 39 41 44 46 47 48 49 50 50 49 48 48 50
73 76 82 87 93 100 106 110 111 107 100 91 79 65 53 47 43 40 36 31 31 34 30 31 32 33 36 38 39 40 42 43 44 43 42 41 40 41
77 82 88 94 100 106 110 108 102 93 83 72 59 49 42 39 36 34 32 30 27 29 28 28 30 31 34 36 37 38 38 36 32 29 27 27 27 28
83 89 94 101 107 109 106 97 85 75 66 57 47 40 35 34 33 30 28 27 28 27 24 24 28 30 34 35 35 33 30 25 19 16 16 18 20 23
89 95 101 106 108 104 95 82 69 59 52 46 41 36 33 33 32 28 24 22 26 30 30 28 29 30 32 32 29 25 22 18 15 15 17 20 22 25
95 101 106 107 102 92 79 66 54 45 42 40 37 35 33 33 32 28 24 22 24 30 34 33 32 29 29 29 25 20 16 15 16 18 20 23 25 26
100 105 105 99 87 74 63 52 42 36 35 34 33 33 34 33 33 32 30 28 28 28 31 31 31 28 25 26 21 15 13 15 17 19 21 23 25 27
102 102 94 82 70 60 50 41 35 34 33 31 31 31 31 31 32 33 33 33 32 31 31 30 28 26 23 19 16 12 12 15 18 21 24 26 27 28
99 90 78 66 57 48 40 34 33 33 31 30 30 30 30 30 31 31 32 33 33 32 31 28 25 22 20 18 16 15 15 17 19 21 24 25 26 28
86 74 64 55 46 38 33 32 31 29 28 28 29 30 31 30 29 28 28 29 31 30 27 24 21 20 18 18 18 18 19 22 24 24 23 21 20 23
72 62 52 43 36 32 31 31 30 30 29 29 30 31 31 30 28 26 24 23 24 24 22 19 17 17 17 18 20 22 24 23 23 22 19 15 16 18
60 49 40 33 31 32 32 32 31 31 32 32 31 31 30 29 27 25 23 21 19 18 17 15 14 14 16 19 22 23 23 22 22 23 19 15 16 17
48 38 32 30 30 29 30 31 32 32 32 32 31 30 29 27 25 24 22 19 16 14 13 11 10 11 14 18 21 22 22 22 22 21 20 18 15 16
37 31 30 30 29 29 29 29 30 31 31 30 29 27 26 25 23 22 20 18 15 11 9 7 5 6 10 15 20 23 23 23 22 23 20 18 15 15
31 30 29 29 28 28 28 28 28 29 29 28 27 25 24 23 22 20 18 16 13 10 8 6 4 3 6 11 17 21 24 23 21 22 22 18 15 15
29 28 26 26 26 26 26 27 28 28 27 26 25 24 23 21 20 18 17 15 12 9 7 5 3 2 3 8 14 19 22 23 22 21 20 18 16 17
26 25 25 25 24 24 25 26 27 27 26 25 24 23 22 21 19 18 17 15 12 9 6 4 3 1 0 4 9 15 20 22 22 20 19 21 23 23
24 24 23 23 22 22 23 25 26 26 26 25 24 24 23 22 21 19 18 15 12 8 5 2 1 0 1 2 6 11 16 19 20 19 19 22 25 27

GEFSNE_500_meanwind_012.txt.gz
Wind_Speed
54 57 60 62 63 65 67 70 74 75 74 74 77 79 81 83 86 90 95 100 105 110 114 115 114 108 102 95 90 88 88 91 94 98 102 107 112 117
58 60 62 63 64 68 72 74 75 76 76 76 79 82 86 90 96 102 107 112 115 114 110 102 93 83 73 67 64 64 64 66 69 74 79 84 90 96
60 62 63 66 69 72 73 74 76 77 78 78 82 87 93 100 106 112 114 111 104 94 84 74 65 59 55 53 51 50 51 52 53 55 58 63 69 76
62 64 67 69 71 72 74 76 77 80 83 84 88 95 102 108 111 109 101 90 78 68 60 55 52 49 46 44 43 43 44 45 46 46 47 49 51 56
65 67 69 70 72 74 76 78 81 85 89 93 97 103 107 107 101 90 76 65 58 53 50 49 46 43 42 42 41 41 41 42 43 44 43 43 43 45
67 68 70 72 74 76 78 82 87 91 97 102 106 106 103 93 80 67 55 50 47 46 46 44 41 41 42 43 43 43 42 41 41 42 42 41 41 41
68 69 71 73 75 79 84 88 94 99 104 107 106 98 86 71 59 50 43 40 39 42 41 40 40 40 42 44 45 47 46 44 41 41 42 41 41 41
69 70 72 75 79 84 89 95 100 105 106 102 92 79 65 53 44 39 36 35 34 38 38 37 39 40 42 43 44 44 44 43 41 40 39 37 36 36
70 72 75 79 84 89 95 100 103 102 94 84 72 59 49 41 37 35 34 32 33 36 36 34 37 39 39 39 39 39 39 37 35 33 32 31 30 29
71 75 80 85 91 96 100 102 97 86 75 64 55 46 40 38 37 34 32 31 31 35 36 35 35 36 36 34 32 32 30 27 26 26 26 26 26 26
75 80 85 90 96 100 100 94 81 67 56 49 43 40 39 38 37 35 34 33 31 33 35 35 34 33 32 28 26 25 24 23 22 22 23 24 25 26
79 85 90 96 99 98 89 75 60 50 45 42 41 40 39 38 38 38 37 35 33 30 31 31 31 27 24 25 23 23 25 26 25 24 23 24 25 26
84 89 95 98 94 84 70 56 47 42 40 39 38 38 37 38 38 38 38 37 34 30 28 27 25 23 19 18 21 23 25 26 27 27 26 25 24 24
89 94 95 90 78 63 52 44 40 39 38 37 36 36 36 36 36 36 37 36 35 30 26 24 22 19 17 16 18 22 25 28 28 27 26 26 25 23
92 92 85 72 58 47 41 38 37 36 35 34 34 34 35 35 34 33 33 33 33 31 26 22 20 18 16 15 17 21 24 26 27 27 26 26 24 23
88 79 65 53 44 39 37 35 33 33 32 32 32 32 32 32 32 31 29 29 28 29 28 23 19 17 15 16 18 22 26 27 26 26 25 24 23 24
76 61 49 42 38 35 33 32 31 31 31 31 31 31 30 30 30 29 28 26 25 23 24 24 21 17 15 15 18 23 27 29 27 25 22 20 22 24
58 45 38 35 32 30 29 30 30 30 31 31 31 30 30 29 28 28 26 25 23 22 20 20 19 17 15 15 18 22 26 27 25 22 19 18 20 23
42 35 31 30 29 28 27 28 30 31 31 31 30 30 30 29 27 26 25 24 22 21 18 16 15 13 12 14 18 22 24 23 22 19 16 17 19 23
30 27 26 25 25 26 26 28 30 31 31 30 30 29 29 28 27 26 25 22 20 19 16 13 11 9 8 9 13 18 20 20 19 17 15 16 20 24
22 21 21 22 23 24 25 27 29 30 30 30 30 30 29 29 27 25 24 21 19 16 12 10 7 5 5 8 12 15 16 17 17 16 14 15 19 22
17 18 19 20 22 24 25 27 29 30 30 30 30 29 29 28 27 24 22 19 16 12 8 6 4 3 4 7 11 13 14 15 15 14 14 13 15 18
14 16 17 20 22 24 26 28 29 30 31 30 30 30 29 28 27 24 21 16 12 7 5 3 2 2 4 7 10 11 12 12 14 13 13 13 14 18

GEFSNE_500_meanwind_018.txt.gz
Wind_Speed
49 51 52 54 54 55 57 59 62 63 63 64 66 67 69 70 72 74 75 78 81 84 87 91 95 99 102 104 106 107 106 105 103 101 100 100 99 100
51 52 54 55 56 57 60 63 65 67 68 67 68 70 71 73 75 78 81 84 88 93 98 102 104 106 106 103 98 91 84 78 74 71 69 68 68 68
52 54 55 56 58 61 64 65 67 68 69 68 70 72 75 77 80 84 89 93 97 101 104 104 102 97 89 80 70 63 58 54 51 50 50 51 51 53
54 56 57 59 62 64 65 66 67 68 70 70 72 75 79 83 87 91 96 100 101 100 96 90 82 73 63 55 49 45 43 41 41 42 43 44 45 46
56 58 61 63 64 65 66 67 68 70 73 75 76 80 85 91 95 98 99 96 91 83 76 68 60 52 47 43 40 38 37 37 37 38 40 41 43 46
59 61 63 64 65 66 66 68 70 73 77 80 83 87 93 97 99 97 89 79 70 63 57 52 47 44 41 40 38 37 36 36 36 37 38 40 41 44
61 62 64 64 65 66 68 71 74 78 82 86 91 95 98 97 92 83 71 60 54 52 48 46 44 42 42 41 39 38 37 37 37 37 37 37 38 40
61 62 62 63 65 68 71 75 79 84 89 94 97 98 94 86 75 64 56 50 47 47 45 43 43 41 41 41 40 39 38 38 37 36 36 35 35 35
60 61 62 64 68 71 74 79 85 92 97 99 96 89 79 67 60 53 50 48 45 46 45 40 40 40 40 41 40 39 38 37 35 34 33 33 33 32
59 61 64 67 71 75 80 85 91 96 96 91 83 72 62 55 51 49 47 45 42 43 45 41 38 37 38 40 40 38 36 35 33 31 31 31 31 31
61 64 68 71 76 81 86 91 93 91 85 74 64 56 52 50 49 46 45 43 41 40 43 41 39 37 35 37 39 37 34 32 31 30 30 30 31 31
64 68 73 77 82 88 92 92 87 77 66 57 52 49 48 46 46 46 45 44 42 39 40 39 37 37 31 32 37 36 33 30 29 29 29 30 31 32
67 72 77 82 88 91 90 83 72 61 51 46 44 44 45 45 46 46 46 45 43 41 40 37 33 33 32 27 30 35 33 30 28 28 29 30 33 35
71 76 82 87 89 86 77 66 55 46 43 41 42 43 44 45 45 45 45 44 44 42 40 37 33 30 28 26 26 30 32 30 27 27 29 31 34 36
76 83 87 87 81 71 59 48 41 39 38 39 40 42 43 44 44 43 42 41 41 41 40 37 34 30 27 24 22 25 27 27 27 27 29 31 33 34
82 85 83 76 65 52 41 36 35 35 36 37 39 41 42 43 43 43 40 38 36 36 38 37 33 29 25 22 19 18 20 21 24 28 28 29 31 30
82 78 69 57 45 35 31 31 32 34 36 39 40 41 42 41 41 41 39 37 35 32 31 31 30 27 24 19 13 12 14 17 21 24 24 23 25 25
74 63 51 39 29 26 27 29 32 34 37 39 40 41 41 39 38 38 37 35 32 30 27 24 21 20 19 18 11 7 10 15 19 22 21 19 19 23
58 45 33 25 22 23 25 28 32 34 37 39 40 40 39 38 37 36 34 32 28 26 23 20 17 13 11 13 15 12 11 14 18 19 18 18 19 22
41 29 21 19 20 22 25 28 32 34 36 38 40 40 39 37 35 33 30 27 23 20 19 17 14 11 9 9 12 15 16 16 16 16 18 20 21 21
25 18 16 17 20 23 25 28 32 34 36 38 40 39 38 36 34 30 27 24 21 18 17 15 13 12 11 11 12 14 16 17 17 16 17 18 19 19
15 13 15 18 21 23 25 28 32 34 36 38 40 39 38 35 32 29 26 23 20 18 16 15 13 13 13 14 14 14 16 17 18 18 17 17 16 15
11 12 15 18 21 23 25 28 31 34 36 37 38 38 37 34 32 29 26 23 20 18 17 16 16 16 15 15 15 16 16 17 18 18 17 17 17 16

GEFSNE_500_meanwind_024.txt.gz
Wind_Speed
43 43 44 45 47 49 52 54 56 57 57 57 59 60 62 64 65 66 67 68 69 70 72 73 75 77 79 82 84 86 89 91 94 96 98 100 102 103
43 44 45 47 50 53 56 58 60 61 61 62 63 64 65 65 66 67 68 70 71 73 76 78 81 84 87 90 92 94 96 98 99 99 99 98 98 97
44 45 47 50 54 57 59 61 62 64 65 65 67 68 68 68 69 70 72 74 76 80 83 86 90 93 95 97 98 98 97 94 91 88 84 81 79 77
45 47 51 54 57 60 61 62 64 66 67 67 68 68 69 71 73 75 77 80 84 88 92 95 97 98 98 96 93 88 83 77 73 69 65 63 60 58
47 51 54 57 59 61 62 64 65 66 68 68 68 70 72 75 78 80 84 88 93 96 97 97 95 91 87 83 77 72 66 62 59 57 55 53 52 50
51 54 57 59 60 62 63 65 66 67 68 69 70 73 76 80 84 87 90 93 94 94 91 87 81 76 71 67 63 59 57 55 53 51 50 49 48 46
53 56 57 59 61 63 64 65 66 67 69 71 74 77 81 85 89 92 91 88 83 79 75 69 66 63 60 58 56 54 53 51 50 49 48 46 45 44
54 56 58 60 62 63 64 66 68 71 73 76 79 83 87 89 89 87 82 76 68 64 63 59 59 57 56 55 54 54 52 50 48 48 47 45 44 43
54 56 58 60 61 63 64 67 71 74 78 81 84 86 86 84 81 75 69 63 59 58 58 54 55 54 54 53 54 54 52 50 48 46 45 44 43 42
55 57 58 60 62 64 66 69 74 78 82 84 85 83 80 76 69 63 58 55 53 55 57 54 53 52 51 50 52 53 52 50 47 45 44 43 43 42
56 57 59 61 64 67 70 74 78 81 83 83 80 75 69 63 58 56 54 53 52 51 56 55 52 51 47 46 48 50 50 49 46 42 41 40 41 41
56 58 61 64 67 71 74 77 78 78 76 73 68 62 57 55 54 54 54 54 54 52 53 53 49 49 43 39 42 46 47 46 44 40 37 37 38 38
57 60 63 67 70 73 76 76 75 71 66 59 54 50 49 50 51 54 56 56 54 52 51 49 45 43 40 35 34 39 43 43 41 38 34 33 33 34
59 63 66 70 72 74 74 72 67 60 53 47 44 44 45 48 51 53 54 53 52 50 48 45 41 36 32 28 27 31 35 36 35 33 30 28 27 28
63 66 70 72 73 73 70 63 55 47 42 40 40 42 44 47 49 49 49 48 46 46 44 41 36 30 26 22 20 23 26 28 29 26 23 22 22 23
67 70 72 73 72 67 58 49 42 38 36 36 38 40 42 44 46 46 44 41 37 35 37 36 31 26 23 20 17 16 18 19 21 20 17 16 17 19
70 72 72 69 62 52 44 38 34 32 33 35 37 38 40 41 42 41 39 35 32 28 26 27 27 26 22 18 13 11 11 14 16 16 16 16 18 21
70 69 66 58 47 39 34 31 29 29 31 33 35 36 37 38 37 36 34 31 28 26 24 22 21 21 21 21 16 10 11 13 15 17 17 18 21 24
67 63 53 42 34 30 27 26 26 28 30 32 33 34 35 35 34 32 30 28 27 26 25 23 21 19 17 18 20 18 14 14 16 18 19 19 20 23
58 48 36 29 25 23 22 23 25 27 28 30 32 32 33 33 32 30 29 27 26 25 25 25 24 22 20 18 18 20 20 18 17 18 20 20 21 22
43 31 24 20 19 20 21 22 24 25 27 28 30 31 31 31 30 29 28 28 27 26 26 26 25 24 21 19 18 19 21 22 21 19 19 20 21 22
27 21 17 16 17 19 21 22 23 25 26 28 29 30 30 29 29 28 28 28 28 27 26 26 25 24 22 21 20 20 21 22 23 23 21 20 21 22
18 15 14 15 17 19 21 23 24 24 26 27 28 29 29 29 29 29 29 28 27 26 26 25 24 24 24 24 23 22 21 21 21 22 23 23 23 24

GEFSNE_500_meanwind_030.txt.gz
Wind_Speed
48 47 47 47 47 47 48 48 49 50 51 52 54 56 58 60 62 63 64 65 66 67 68 69 70 71 71 72 73 75 76 77 78 79 81 82 83 84
49 48 48 48 48 49 50 50 51 52 54 55 57 59 62 64 65 66 67 68 69 70 71 71 72 73 75 76 78 80 81 83 84 85 87 88 90 91
49 49 48 51 51 51 52 53 54 55 56 58 60 63 65 66 68 69 70 71 72 73 74 75 77 78 80 82 83 85 85 86 87 88 90 91 92 92
49 49 50 52 52 54 55 56 57 58 59 61 63 66 67 69 70 70 71 73 74 76 78 80 82 83 84 85 85 85 86 86 87 87 87 88 87 87
49 49 51 52 54 56 57 58 60 62 64 65 66 68 69 70 71 72 73 75 77 79 81 82 83 84 84 84 84 84 84 83 83 82 81 79 78 76
48 49 52 54 57 58 60 62 63 65 66 67 67 68 69 71 73 73 74 76 78 81 82 82 82 82 82 82 81 80 79 77 75 73 71 70 68 67
47 49 53 56 58 61 63 64 66 66 67 68 68 69 70 72 74 75 76 77 78 80 79 80 81 81 80 79 78 76 74 72 70 68 66 64 62 61
47 50 53 57 59 62 64 65 65 66 67 68 69 70 72 74 75 76 77 77 76 77 76 75 76 73 72 70 69 69 69 67 66 63 61 60 58 57
48 51 55 58 60 61 63 64 65 67 69 69 71 73 74 76 77 77 76 75 73 72 69 65 65 64 62 62 62 63 63 62 60 58 56 53 52 51
50 52 54 57 59 61 63 64 65 68 70 72 74 75 77 77 76 74 71 68 64 63 63 59 57 56 55 55 57 58 58 57 54 52 49 47 46 44
47 50 53 56 59 60 62 64 66 69 72 74 75 76 75 74 71 67 63 59 56 55 57 54 51 50 48 48 49 51 51 50 48 45 42 40 38 37
47 50 53 55 58 60 63 65 68 71 73 74 74 73 70 66 62 58 55 53 51 49 49 48 46 45 40 38 41 43 44 45 43 40 37 33 31 30
47 50 53 56 60 63 66 69 71 71 72 71 70 66 61 56 53 51 50 48 47 46 46 44 41 40 38 34 34 37 39 39 38 35 33 29 27 25
47 51 55 59 63 66 69 71 71 70 68 65 59 54 50 47 46 46 45 45 45 45 44 42 39 38 36 33 31 32 34 35 34 31 29 27 25 21
50 54 58 62 66 68 69 68 66 63 58 51 46 43 41 40 41 41 41 42 43 44 42 40 39 38 37 35 32 31 30 30 32 29 27 25 23 20
54 59 62 65 66 66 64 61 56 49 43 39 36 36 36 37 37 37 38 39 39 40 42 41 40 39 37 36 35 32 29 27 27 28 26 25 23 20
58 62 64 63 62 59 54 48 42 37 34 33 32 32 33 33 34 36 37 37 37 37 38 39 39 38 37 37 35 33 30 28 27 26 25 23 24 22
60 61 60 58 54 49 43 38 34 31 29 29 29 29 30 31 33 34 35 36 36 36 37 37 37 35 34 35 38 36 33 30 28 28 26 24 24 25
59 58 55 51 46 41 36 33 29 28 27 27 27 28 29 30 32 33 34 35 35 36 37 38 38 36 32 29 31 36 34 30 28 27 27 26 24 25
57 53 48 44 40 35 31 28 26 26 26 26 27 28 29 31 32 33 34 35 35 34 35 38 39 38 36 32 29 31 35 33 30 27 25 25 25 25
51 46 41 37 33 29 27 25 25 25 26 27 29 29 30 31 32 33 34 35 35 35 35 36 38 39 37 34 31 30 32 34 33 31 27 25 24 25
44 39 35 31 28 25 25 25 25 27 28 29 30 30 31 32 32 33 34 34 35 35 35 35 36 37 36 35 33 32 30 31 32 33 32 29 26 24
37 33 30 27 25 24 25 26 27 28 29 30 31 31 31 32 33 33 34 35 35 34 34 34 34 35 35 34 34 33 31 30 29 29 30 31 29 26

GEFSNE_500_meanwind_036.txt.gz
Wind_Speed
60 59 58 56 55 53 53 52 51 51 52 52 53 54 56 56 56 56 56 57 59 60 61 62 63 64 65 66 67 68 69 70 71 72 74 74 76 77
62 60 59 58 56 55 54 53 54 54 54 54 56 57 58 59 59 59 60 60 61 63 64 65 66 67 69 70 70 71 72 73 74 76 77 79 80 82
63 62 60 59 58 57 57 56 56 57 58 58 59 59 60 62 62 63 62 63 65 66 67 68 69 70 71 72 73 74 75 76 77 78 79 81 81 82
61 61 60 60 59 59 59 58 58 59 60 61 61 63 64 64 65 65 66 67 68 68 69 70 71 72 73 74 75 76 76 77 79 79 80 80 81 82
59 59 59 60 59 60 58 58 58 59 61 62 63 64 66 67 68 68 68 68 69 70 71 72 73 74 75 76 77 77 78 79 79 78 78 78 78 78
55 57 57 58 58 58 58 58 59 61 62 64 65 66 67 69 69 69 69 70 70 71 73 74 76 76 77 78 79 78 78 76 75 73 72 71 71 70
48 50 52 53 54 55 56 57 59 61 62 64 66 67 68 69 70 69 70 70 72 74 76 77 78 78 79 79 78 76 74 71 68 66 65 63 62 62
43 45 47 48 50 52 54 56 58 61 62 64 65 66 68 69 69 70 71 73 74 76 77 78 78 77 77 74 72 69 67 64 62 59 58 56 54 54
37 39 42 45 47 50 53 56 59 60 61 62 63 65 66 68 70 72 74 75 76 77 77 75 74 71 68 65 64 62 60 58 55 53 52 50 48 47
32 37 39 43 46 49 51 53 54 56 58 60 62 65 67 70 72 74 75 75 75 76 75 70 65 61 58 57 57 56 55 52 50 47 45 44 43 43
32 35 38 41 43 46 48 50 52 55 58 61 64 67 69 71 72 72 72 72 69 67 65 59 55 52 50 51 51 51 50 48 46 44 43 42 41 39
29 32 35 37 40 43 45 49 52 56 60 63 65 67 68 68 68 67 66 62 58 55 53 49 47 46 42 42 45 46 46 45 44 44 43 41 39 37
27 30 33 36 40 43 47 51 54 58 61 62 63 63 62 61 60 56 52 49 46 44 43 40 39 39 37 36 38 41 42 42 42 43 42 40 38 37
28 31 35 38 42 46 49 53 56 58 59 59 58 57 55 52 49 46 43 41 39 38 37 36 34 34 34 34 35 37 38 39 40 39 39 38 38 37
31 34 38 41 45 48 52 54 57 57 57 55 53 51 48 45 42 39 37 35 35 34 34 34 33 33 34 34 34 35 36 35 37 37 36 35 36 36
34 37 40 44 47 51 53 55 56 54 52 50 48 45 41 38 35 34 33 32 33 34 36 36 35 36 35 35 36 36 35 33 33 33 32 32 34 35
37 40 43 47 50 52 54 54 52 49 46 44 41 37 35 33 32 31 32 32 33 34 36 37 37 37 36 36 36 36 35 34 33 32 31 30 32 34
40 43 46 49 51 52 51 49 45 42 39 36 34 32 32 32 32 33 33 33 34 34 35 36 37 37 35 34 37 37 36 35 33 33 33 31 31 33
43 45 48 50 50 49 46 43 40 37 34 32 31 31 31 32 33 34 34 34 34 34 35 37 38 37 34 31 31 37 37 34 33 32 33 32 30 30
44 46 48 49 47 44 41 38 36 34 32 31 31 32 32 33 34 34 34 34 34 34 34 36 38 38 36 33 31 33 38 37 34 32 31 30 30 30
46 47 48 47 44 41 38 36 34 33 32 32 33 33 34 34 35 35 35 35 35 34 34 35 37 38 38 37 34 32 35 37 37 35 32 30 28 28
47 48 47 45 42 39 36 35 34 34 34 34 35 36 36 36 36 36 36 36 36 35 34 34 35 36 37 37 36 34 32 33 35 36 36 33 28 25
48 48 47 43 40 37 36 35 35 35 36 36 37 37 38 38 38 37 37 37 36 36 35 34 34 35 36 36 36 35 33 32 32 32 33 34 31 28

GEFSNE_500_meanwind_042.txt.gz
Wind_Speed
67 66 65 63 62 62 61 60 58 57 56 55 55 55 54 52 50 51 52 53 52 53 54 55 57 57 58 58 58 58 59 60 61 61 62 62 63 64
65 64 63 62 61 60 60 59 58 57 56 56 56 55 57 55 54 53 54 54 54 56 57 58 58 59 60 61 61 62 62 63 64 65 65 66 67 68
60 60 60 60 59 58 58 59 58 58 58 58 58 58 59 57 56 56 56 56 58 59 61 62 62 63 63 64 64 64 64 65 66 66 68 69 70 71
53 54 55 56 56 56 56 57 57 58 59 59 59 59 60 59 60 59 60 61 62 62 63 64 65 66 65 65 65 66 66 67 67 68 69 70 72 73
45 47 48 50 52 53 54 54 55 56 58 59 59 59 60 61 61 61 62 62 63 65 66 66 67 66 65 66 67 67 68 68 69 70 71 73 74 75
38 40 42 43 46 48 49 50 51 53 54 55 56 57 60 61 61 62 64 65 65 66 66 67 67 67 67 68 67 68 69 70 71 72 73 74 75 76
31 33 34 36 39 41 42 44 46 47 49 52 54 55 57 58 59 60 62 62 63 64 65 66 66 67 68 69 70 70 71 72 73 73 74 74 73 73
25 26 28 29 31 33 35 39 41 44 46 48 51 52 54 56 57 59 60 61 62 63 64 65 67 68 69 70 71 71 72 72 71 71 70 68 67 66
19 20 21 23 26 28 31 34 36 39 42 45 48 50 52 53 55 56 57 59 61 63 64 66 67 67 68 69 69 68 68 66 65 63 61 60 58 57
13 15 16 19 21 24 27 31 34 36 39 42 44 47 49 51 53 55 58 61 63 65 65 65 65 64 64 64 63 61 59 57 55 53 52 50 49 48
13 14 15 17 20 23 26 28 31 34 37 40 42 45 49 52 55 58 60 61 63 64 63 61 60 58 56 55 53 51 49 47 46 44 43 42 42 42
14 16 17 18 21 23 26 29 32 35 38 42 45 48 51 54 57 59 60 61 61 60 58 55 53 50 46 46 46 45 43 42 40 39 39 39 39 39
17 19 20 22 24 26 29 32 35 38 41 45 48 51 54 56 58 59 58 57 56 54 51 48 46 44 40 38 39 41 40 40 39 39 40 40 39 38
21 22 24 26 29 31 34 37 40 42 45 48 51 53 55 56 57 56 54 52 49 46 44 42 39 39 37 36 36 37 39 39 39 39 39 40 40 40
25 27 28 30 33 35 38 40 43 46 48 51 53 54 55 55 54 52 48 45 42 41 40 39 38 37 36 35 34 35 36 37 39 38 37 38 39 39
29 31 32 34 37 39 41 43 46 48 50 52 53 54 54 52 49 46 43 41 40 40 40 39 38 37 36 36 35 35 36 36 36 36 36 35 37 38
32 34 36 37 39 41 43 45 47 50 51 52 52 52 50 47 45 42 41 39 38 38 39 40 39 38 37 37 37 37 37 36 36 35 34 32 34 36
35 37 38 40 42 43 46 48 49 51 51 51 50 48 46 44 43 42 41 40 39 39 40 40 41 40 39 38 39 38 38 37 36 36 35 33 31 35
38 39 41 42 44 46 47 49 50 51 50 50 48 46 45 43 43 42 42 41 41 41 41 42 42 42 41 38 36 39 39 37 36 35 35 33 31 31
39 41 42 44 46 47 49 50 50 50 49 48 47 46 44 43 43 43 43 43 42 42 42 42 44 44 43 40 35 34 39 39 37 35 34 33 32 31
41 43 44 46 48 49 50 51 51 50 49 48 46 45 45 44 43 43 43 44 44 43 42 42 43 44 43 40 36 33 35 39 39 37 35 33 31 30
43 44 46 48 49 51 51 52 51 50 49 47 46 45 45 44 44 44 44 44 43 43 42 42 42 42 42 41 38 34 33 35 38 38 38 37 34 29
45 47 48 50 51 52 52 52 51 50 48 46 45 45 44 44 44 44 44 43 43 42 42 41 40 40 40 40 39 37 35 35 35 35 35 38 38 34

GEFSNE_500_meanwind_048.txt.gz
Wind_Speed
53 54 56 57 59 59 60 60 60 61 59 57 56 55 57 58 58 58 56 57 56 54 54 49 46 46 46 45 45 45 46 47 48 50 51 53 53 53
51 51 53 54 53 53 53 54 55 56 56 55 54 53 52 54 56 57 57 56 56 54 53 50 47 45 44 45 46 46 48 49 51 52 53 54 55 57
47 48 49 48 47 48 47 47 48 47 47 47 48 47 48 48 51 53 54 54 54 55 55 54 52 51 50 49 50 51 52 53 54 55 56 56 57 58
45 44 43 42 42 42 42 41 40 41 42 42 44 44 44 45 46 48 50 51 52 55 55 55 55 54 54 54 54 54 55 56 57 57 57 57 58 60
41 40 38 37 37 37 37 36 35 35 35 35 37 39 40 42 43 44 46 48 50 53 54 54 55 55 55 55 55 56 56 56 57 57 57 58 59 60
37 36 34 33 33 33 32 31 30 30 32 32 33 34 36 39 41 43 45 47 49 51 52 53 54 54 54 54 54 55 56 56 57 57 58 59 60 62
33 32 31 30 30 29 29 27 26 26 26 27 29 30 32 34 37 39 42 44 46 48 49 51 52 53 54 54 55 55 56 57 58 58 59 60 61 63
30 29 28 27 27 26 25 25 24 23 23 24 25 27 29 33 35 38 40 42 44 46 48 49 51 52 54 55 56 57 58 58 59 59 60 60 61 63
26 26 25 25 24 24 24 23 23 23 23 24 24 26 28 31 34 36 38 41 43 45 47 49 51 53 55 56 57 58 58 59 59 59 59 59 59 60
25 24 24 24 24 24 24 25 24 25 25 26 27 28 30 32 34 37 39 42 44 47 49 51 53 55 57 58 59 59 59 59 58 58 57 56 56 56
25 25 25 25 25 26 26 26 26 27 28 29 30 32 34 35 37 40 42 45 47 50 51 53 55 57 58 59 59 58 57 56 55 54 53 53 52 51
26 26 26 27 27 27 28 29 30 31 32 33 35 36 38 39 41 43 46 48 50 52 53 54 56 57 57 57 56 55 54 52 51 50 48 48 47 46
27 28 28 29 29 30 31 32 33 34 35 37 38 40 41 43 45 47 48 50 52 53 54 54 54 54 53 51 51 50 49 48 47 45 44 44 43 43
29 30 31 31 32 33 34 35 36 37 39 40 41 43 44 46 47 49 50 52 53 53 53 53 52 51 49 47 46 47 46 45 45 44 43 42 42 42
31 32 33 34 34 35 36 37 38 40 41 42 44 45 47 48 49 51 51 52 52 53 52 51 50 49 47 45 44 44 45 45 45 44 43 42 42 43
33 34 35 35 36 37 38 39 41 42 44 45 47 48 49 49 50 51 51 52 52 53 52 51 49 47 46 45 43 43 44 44 44 45 44 43 43 44
34 35 36 37 38 39 40 41 43 44 46 48 49 50 50 51 51 52 52 51 51 51 51 51 49 47 45 44 43 43 44 44 45 45 45 43 43 44
35 36 37 38 40 41 42 44 45 47 49 50 51 51 51 52 53 53 51 51 50 50 50 50 49 48 46 44 44 44 44 45 45 45 45 43 41 43
36 38 39 40 41 43 44 46 48 50 51 52 53 53 53 53 53 52 51 50 49 49 49 49 48 47 46 43 42 44 45 45 45 44 44 43 41 40
38 39 40 42 43 45 47 49 51 52 53 54 54 54 54 53 52 51 50 49 48 48 47 47 48 47 45 43 41 41 45 45 45 44 44 43 41 40
39 41 42 43 45 47 49 51 52 53 54 54 54 54 53 52 51 50 49 48 47 46 44 45 46 46 45 43 40 39 42 44 44 43 42 42 40 39
41 42 43 45 46 48 50 52 53 54 54 54 54 53 52 51 50 49 48 46 45 44 42 42 43 43 43 42 40 38 38 40 42 42 41 40 39 37
42 43 44 46 48 50 52 53 54 54 54 54 53 53 51 50 49 48 46 45 43 41 40 39 39 40 40 40 39 36 36 37 39 39 39 41 39 37

GEFSNE_500_meanwind_054.txt.gz
Wind_Speed
44 44 44 44 45 46 47 48 48 46 45 44 45 45 45 46 45 44 45 46 46 46 45 47 48 51 50 49 48 48 46 44 44 44 43 43 45 46
43 43 43 44 44 45 46 45 45 44 43 42 41 40 40 39 39 39 39 39 38 38 39 43 44 46 46 47 47 47 47 46 44 42 41 41 42 42
42 42 43 43 43 44 43 42 42 41 40 38 37 36 35 34 34 34 32 31 30 31 33 36 38 40 41 42 43 45 46 46 44 43 43 43 42 41
41 42 42 42 41 41 40 40 39 38 37 35 34 32 32 31 30 29 29 27 26 28 28 30 32 35 37 38 40 42 43 43 43 43 44 44 45 46
40 40 40 40 39 38 38 37 37 35 34 33 32 30 29 29 28 27 26 26 26 27 28 29 30 32 34 36 38 40 42 44 44 44 45 46 47 48
38 38 38 37 37 36 36 35 34 33 32 31 30 29 29 28 28 27 27 27 27 28 29 30 30 31 33 36 38 39 41 43 44 45 45 46 48 49
36 36 36 36 35 35 34 33 32 31 31 30 30 30 30 29 29 29 29 29 29 30 30 30 31 33 34 36 37 39 41 42 43 45 46 47 48 50
34 34 34 34 34 33 33 32 32 31 31 31 31 31 31 31 31 30 30 31 31 31 32 32 34 35 36 37 39 40 42 44 45 46 47 48 49 50
33 33 33 33 33 32 32 32 32 32 32 32 32 33 33 33 33 33 33 34 34 34 35 36 37 38 40 41 43 44 45 46 47 49 50 51 52 52
32 32 32 32 32 32 32 32 32 33 33 33 34 34 35 35 35 36 37 37 38 39 39 40 42 43 45 45 46 48 49 50 50 51 52 53 54 54
32 32 32 32 32 33 33 33 33 34 34 35 36 36 37 37 38 39 39 40 41 42 43 44 46 47 49 49 50 51 52 52 53 54 54 54 55 55
32 33 33 33 33 33 34 34 35 36 36 36 37 38 38 39 40 41 42 43 44 45 46 48 49 49 50 51 52 52 53 53 53 53 54 54 54 54
33 33 34 34 34 34 35 35 36 37 37 38 39 39 40 41 42 43 44 46 47 48 49 49 50 50 50 51 52 53 53 52 52 53 52 52 52 52
33 34 34 35 35 35 36 36 37 38 39 39 40 41 42 43 45 46 47 48 49 50 50 50 50 51 51 51 52 53 53 53 52 52 52 51 51 50
34 34 35 35 36 37 37 38 39 39 40 41 42 43 45 46 47 48 49 50 51 52 52 52 51 51 52 52 52 52 53 53 53 52 51 50 49 48
34 35 36 37 38 38 39 39 40 41 42 43 44 45 46 47 49 50 51 52 52 53 53 52 52 51 51 50 50 50 51 51 52 52 50 49 47 47
37 37 38 38 39 39 40 41 42 43 44 45 46 47 48 50 51 52 52 53 53 53 54 54 53 51 50 49 48 48 49 49 50 50 49 47 46 46
38 38 39 40 40 41 41 42 43 45 46 47 48 49 50 52 53 53 53 53 53 53 53 54 53 52 49 48 47 46 46 47 48 48 47 45 43 45
39 40 40 41 41 42 43 44 45 46 47 48 50 51 52 53 54 54 54 54 53 52 52 53 53 51 48 45 43 45 45 44 44 44 45 44 42 42
40 41 41 42 43 44 45 46 47 48 49 50 51 53 53 53 54 54 54 53 52 52 51 52 52 49 46 42 39 39 43 43 41 41 41 41 40 40
41 41 42 43 44 45 46 47 48 49 50 51 53 53 53 53 53 53 53 52 51 50 49 49 49 47 44 41 36 34 38 41 41 40 39 39 39 37
42 43 44 45 45 46 47 48 49 50 51 52 53 53 53 53 53 52 52 51 50 50 48 47 46 44 43 40 36 33 34 37 40 40 39 39 37 33
43 44 45 45 46 47 47 48 49 51 52 53 53 53 53 53 53 52 52 51 51 50 48 45 43 42 41 40 38 35 34 36 37 37 37 39 37 33

GEFSNE_500_meanwind_060.txt.gz
Wind_Speed
47 46 46 44 43 43 43 43 42 41 41 41 41 41 42 41 40 39 37 36 35 34 33 33 33 33 33 32 34 34 35 36 38 41 41 41 42 43
46 45 44 42 42 42 42 41 41 40 40 40 40 40 40 39 38 36 35 34 32 32 31 30 31 31 32 30 30 30 32 34 35 37 39 40 41 42
44 43 42 41 41 40 40 40 39 39 39 38 38 38 37 37 35 34 33 32 31 31 30 29 29 29 28 28 28 29 29 30 32 35 37 38 39 40
42 41 40 40 39 38 38 38 37 37 37 37 37 36 36 35 34 32 32 31 31 30 29 28 28 27 27 27 28 27 28 29 32 34 35 37 38 39
40 39 38 38 37 37 36 36 36 36 36 36 36 35 35 33 33 32 32 31 31 30 29 28 28 27 28 28 28 29 28 29 31 32 35 37 39 41
37 36 36 35 35 34 34 34 34 34 34 34 34 34 33 33 33 32 32 31 31 31 30 30 29 29 29 29 29 29 30 31 33 34 35 37 39 41
34 34 34 33 33 32 32 33 33 33 33 33 33 33 33 33 32 32 32 32 32 32 32 32 31 31 31 31 32 32 33 34 35 36 37 38 39 41
32 31 31 31 31 31 31 32 32 33 33 33 33 33 33 33 32 33 33 33 33 34 34 34 34 34 34 35 35 36 36 37 37 39 40 41 42 43
30 29 29 29 30 30 31 32 32 32 32 33 33 33 33 33 33 34 34 35 35 35 36 36 36 37 37 38 38 39 40 40 41 42 43 44 44 45
28 28 28 28 29 30 30 31 31 32 32 33 33 34 34 35 35 35 36 36 37 37 37 38 38 39 40 41 41 42 43 43 44 45 46 47 48 48
27 28 28 29 29 30 30 31 32 32 33 34 34 35 35 36 37 37 38 38 38 39 39 40 41 42 42 43 44 44 45 46 47 47 48 49 50 50
28 28 29 29 30 31 31 32 33 33 34 35 36 36 37 38 38 39 39 40 40 41 41 42 43 44 45 46 46 47 47 47 48 49 49 50 51 52
29 29 30 30 31 32 33 34 34 35 36 36 37 38 38 39 40 40 41 42 42 43 43 44 45 46 47 47 48 48 49 49 49 50 51 52 52 53
30 31 31 32 33 34 35 35 36 37 37 38 39 39 40 40 41 42 43 44 45 45 46 46 47 48 48 48 49 50 50 51 51 51 51 52 52 53
32 32 33 34 35 36 36 37 38 38 39 39 40 40 41 42 43 44 45 46 47 47 48 48 49 49 49 49 49 51 51 51 52 51 50 50 51 51
33 34 34 35 36 37 37 38 39 39 40 41 41 42 43 44 45 46 47 48 48 49 50 50 49 49 49 49 49 50 51 51 52 52 50 50 50 50
35 36 36 37 38 38 39 39 40 41 41 42 42 43 44 45 46 47 48 49 50 51 51 51 49 49 49 49 49 50 50 50 50 50 48 47 48 47
37 38 38 39 39 40 40 40 41 42 42 43 44 45 46 46 47 48 50 50 50 51 51 51 50 50 49 48 49 49 49 49 48 47 46 44 43 44
38 39 39 40 40 41 41 42 42 43 44 44 45 46 46 47 49 50 50 50 50 50 51 51 51 51 49 48 47 49 49 48 47 45 44 41 39 40
39 40 40 41 41 41 42 43 43 44 44 45 45 46 47 48 49 50 50 50 50 50 51 52 52 51 50 48 46 46 49 48 46 44 43 40 38 37
40 40 40 40 41 42 42 43 43 43 44 45 46 47 48 48 49 50 51 51 51 51 52 52 52 52 50 48 46 45 46 46 45 43 42 40 38 36
40 40 40 40 41 41 42 42 42 43 44 46 47 48 48 49 50 50 51 51 51 51 51 51 51 51 50 48 46 44 44 45 45 44 43 41 39 36
40 40 40 41 41 41 41 42 43 44 45 46 47 48 49 50 50 50 50 51 51 51 51 50 50 50 49 48 47 44 43 43 44 43 42 43 41 39

GEFSNE_500_meanwind_066.txt.gz
Wind_Speed
47 46 46 46 46 45 45 45 44 44 43 42 41 40 38 37 37 36 35 34 33 33 32 31 30 29 29 28 28 28 29 30 29 28 29 29 29 29
47 47 47 46 46 45 45 45 44 43 41 40 39 37 36 36 35 34 33 33 32 31 31 29 29 28 28 27 27 26 27 27 28 27 27 26 27 27
48 47 46 46 45 45 45 44 42 41 39 38 37 35 34 34 33 32 32 31 31 30 29 29 28 28 27 27 27 27 27 27 27 26 25 26 26 27
47 47 46 45 45 44 43 41 40 38 37 35 34 33 33 32 31 31 31 30 30 29 29 29 28 28 27 27 27 26 26 27 27 26 26 26 26 28
45 45 45 44 43 42 40 38 37 36 34 33 32 32 31 31 31 30 30 29 29 29 29 28 28 28 27 27 27 27 27 27 27 27 27 27 27 28
44 43 43 42 41 39 37 35 34 33 32 31 31 30 30 30 30 29 29 29 29 29 29 29 29 29 29 29 29 29 29 29 29 29 29 29 29 30
42 41 40 39 38 36 34 33 32 31 31 30 30 30 30 30 30 29 29 30 30 30 30 30 30 31 31 31 31 31 31 31 31 31 32 32 32 32
39 38 37 36 35 34 33 31 30 30 29 29 29 30 30 30 29 30 30 31 31 32 32 32 32 32 33 33 33 33 33 34 34 35 35 35 35 36
36 35 35 34 32 31 30 30 30 29 29 29 30 30 30 30 30 31 32 32 33 33 33 33 34 34 34 35 35 36 36 36 37 37 38 38 38 39
33 32 32 31 30 29 29 30 30 29 30 30 30 30 31 31 32 33 33 34 34 35 35 35 35 36 36 37 38 38 38 38 39 39 39 40 40 40
31 30 29 29 29 30 30 30 30 30 31 31 31 32 33 33 34 35 35 36 36 36 37 37 37 38 38 39 39 40 40 41 41 41 42 42 42 42
29 29 29 29 30 30 30 30 31 31 32 32 33 33 34 35 36 37 37 38 38 38 38 38 39 39 39 40 41 42 42 43 43 43 44 44 44 45
28 29 29 29 30 30 30 31 31 32 33 33 34 35 36 37 38 38 39 39 39 40 40 40 41 41 41 42 43 44 44 44 44 44 44 45 45 46
28 29 29 29 30 31 31 32 32 33 34 35 36 37 38 38 39 40 40 40 41 41 42 42 42 43 43 44 44 45 46 46 45 44 44 44 45 46
28 29 29 30 31 32 32 33 34 35 36 37 38 39 39 40 40 40 41 42 43 43 44 44 44 45 45 45 45 46 47 47 46 45 45 45 45 46
28 29 30 32 32 33 34 35 36 37 37 38 39 40 41 41 41 42 42 43 44 44 44 45 45 45 46 46 46 47 47 47 47 47 46 46 46 46
29 31 32 33 34 35 36 37 37 38 39 40 40 41 41 42 42 43 43 43 44 44 45 45 46 46 46 47 47 47 47 47 47 47 46 46 46 47
32 33 34 35 36 36 37 38 39 39 40 41 41 42 42 42 42 43 43 43 44 45 45 46 46 46 46 46 47 47 47 47 47 47 46 45 45 47
33 34 35 36 36 37 38 38 39 40 41 41 42 42 42 42 43 43 43 44 45 46 47 47 47 46 46 46 46 48 48 48 47 47 47 46 45 45
34 35 36 36 37 38 39 39 40 41 41 41 41 41 42 42 43 43 44 45 46 46 47 48 47 47 47 46 45 47 49 48 48 47 47 46 45 44
35 36 36 37 38 39 40 40 41 41 41 41 41 42 42 42 43 44 45 46 46 47 47 48 48 48 48 47 46 46 49 50 49 47 46 46 44 42
36 37 38 38 39 39 40 40 40 40 40 41 41 42 42 43 44 45 46 47 47 48 48 49 49 49 49 48 47 47 48 50 50 48 47 47 44 41
36 37 37 38 39 39 40 39 39 40 40 41 41 42 43 44 45 46 47 48 48 49 49 49 49 50 50 50 49 49 49 49 49 47 47 47 45 42

GEFSNE_500_meanwind_072.txt.gz
Wind_Speed
51 51 50 49 48 48 47 47 46 46 45 44 44 44 43 42 41 40 39 37 35 32 31 29 28 27 27 26 26 26 25 25 25 26 26 26 27 27
52 51 51 50 49 48 48 47 47 46 45 45 44 44 42 41 40 39 37 35 33 31 29 28 27 27 26 26 25 25 24 24 24 25 25 26 26 26
52 51 51 50 49 48 48 47 46 46 45 45 44 42 41 40 39 37 35 33 31 30 28 27 27 26 26 25 25 24 24 24 24 25 25 26 26 26
50 49 49 49 48 47 46 46 45 45 44 43 42 41 39 38 36 34 32 31 30 29 28 27 27 26 25 25 25 25 25 25 25 25 25 25 26 26
48 48 47 46 46 45 44 44 44 43 42 41 40 38 37 35 33 32 32 30 29 28 27 27 26 26 26 26 26 26 26 26 26 26 26 27 27 28
46 46 45 44 44 43 43 42 41 40 40 39 37 36 34 33 32 31 31 30 29 28 27 27 27 26 26 26 26 27 27 27 27 28 28 28 29 29
43 43 43 42 42 41 40 40 39 38 37 36 34 33 32 32 31 31 30 29 29 28 28 27 27 27 27 28 28 28 28 29 29 29 30 30 30 31
41 41 41 41 40 39 39 38 37 35 34 33 33 32 32 31 31 30 30 29 29 29 29 28 29 29 29 29 29 30 30 31 31 31 31 32 32 33
40 40 39 39 38 38 37 36 35 34 33 32 32 32 31 31 31 30 30 30 30 30 30 30 30 31 31 31 31 32 32 33 33 33 33 34 34 35
39 38 37 37 37 36 35 34 33 32 31 31 31 31 30 30 31 31 31 31 31 31 31 32 32 33 33 33 34 34 34 35 35 36 36 36 37 37
36 36 35 35 34 33 32 31 31 30 30 30 30 30 30 31 31 31 31 31 32 32 33 33 34 34 35 35 36 36 36 37 37 38 38 39 39 39
33 32 32 32 31 31 31 30 30 29 29 29 30 30 31 31 31 32 32 32 33 34 34 35 35 36 36 37 37 37 38 38 39 39 40 40 41 41
31 30 30 29 29 30 30 29 29 29 29 30 31 31 32 32 32 33 33 34 34 35 36 36 37 37 37 38 38 39 39 39 40 40 41 42 42 43
29 29 28 28 28 28 28 28 29 29 30 31 31 31 32 32 33 34 34 35 36 36 36 37 37 38 38 39 40 40 41 41 41 42 42 43 43 43
28 27 27 27 26 27 27 28 28 29 30 30 31 32 32 33 33 34 35 36 36 37 38 38 39 39 39 40 41 42 42 42 42 42 43 43 43 44
26 26 26 26 26 27 27 28 28 29 30 31 32 33 33 34 35 36 37 37 38 39 39 39 39 39 40 40 41 42 42 42 43 42 43 43 44 45
25 25 25 26 26 27 27 28 29 30 31 32 33 34 34 35 36 37 38 39 39 40 40 40 40 40 40 41 42 43 43 43 43 42 42 43 45 45
26 26 26 27 27 28 29 30 31 32 32 33 34 35 36 37 38 38 39 40 40 40 40 40 40 40 41 42 43 43 44 43 43 43 43 43 45 46
27 28 28 29 29 30 31 32 33 33 34 35 36 36 37 38 39 39 39 40 40 40 40 41 41 42 42 43 43 44 44 44 44 44 44 44 44 46
29 29 30 31 32 33 33 34 35 35 36 36 37 38 38 38 39 39 40 40 40 41 42 43 43 43 43 43 43 45 46 45 45 45 46 45 45 46
31 32 33 33 34 34 35 35 36 36 37 37 38 38 39 39 39 40 40 40 41 42 43 44 44 44 44 44 44 45 47 47 47 46 47 46 46 46
33 33 34 34 34 35 35 36 36 37 37 38 38 39 39 39 39 40 40 40 41 42 43 44 44 45 45 45 45 46 48 49 49 48 48 48 47 45
33 33 34 34 35 35 36 36 37 37 38 38 38 38 39 39 39 39 40 41 42 42 43 44 45 46 46 46 46 47 48 49 50 49 50 50 48 45

GEFSNE_500_meanwind_078.txt.gz
Wind_Speed
50 51 52 52 52 52 52 52 52 51 50 50 50 50 49 48 47 46 44 43 42 40 39 38 36 33 31 30 28 27 26 25 24 23 22 22 22 22
51 51 51 52 52 52 51 51 51 50 49 49 48 48 48 47 46 45 43 42 40 39 37 35 33 31 30 29 27 27 26 24 23 22 22 21 21 21
50 50 50 50 50 50 50 49 49 49 48 47 47 46 45 45 44 42 41 39 38 36 35 33 31 30 29 27 26 26 25 23 22 21 21 21 21 21
49 49 49 49 48 48 48 48 48 48 47 46 45 44 43 42 41 40 38 37 36 35 33 31 30 29 28 27 26 25 24 23 22 22 21 21 22 22
47 47 46 46 46 46 46 46 47 46 45 44 43 42 40 39 38 37 36 35 34 32 31 30 29 28 27 26 26 25 24 24 23 23 22 22 22 22
45 45 45 45 45 45 45 45 44 44 43 42 41 40 38 38 36 35 34 34 32 30 30 29 28 28 27 27 26 25 25 24 24 24 23 23 23 24
44 44 44 44 44 44 43 43 43 42 41 40 39 38 36 35 34 34 33 32 31 29 29 28 28 27 27 27 26 26 25 25 25 25 25 25 25 26
43 43 43 43 43 43 42 42 41 40 39 38 37 36 34 34 33 32 31 30 29 29 28 28 28 28 27 27 27 26 26 26 26 26 26 26 27 27
43 43 43 43 43 42 41 40 39 38 38 37 35 34 33 32 31 31 30 29 29 29 28 28 28 27 27 27 27 27 27 28 28 28 29 29 29 29
42 42 42 42 41 40 39 37 37 36 35 33 32 32 31 31 31 30 29 29 29 29 29 28 28 28 28 28 28 28 29 29 30 30 30 31 31 32
41 41 41 40 39 37 36 35 34 33 32 31 31 30 30 30 30 29 28 28 28 28 28 28 28 28 28 29 29 30 30 31 31 31 32 32 33 34
40 39 38 38 37 35 34 33 32 31 30 30 29 29 28 28 27 27 27 27 28 28 28 29 29 29 29 30 31 31 32 32 33 33 33 34 34 35
39 38 37 36 34 33 33 32 31 30 29 28 28 28 27 27 27 27 27 28 28 28 29 30 30 30 31 31 32 33 33 34 34 34 35 36 36 37
37 36 35 33 32 32 32 31 31 29 28 28 27 27 26 26 27 27 28 28 29 29 30 30 31 31 32 32 33 34 34 35 36 36 37 38 38 39
35 34 33 32 31 31 30 29 28 28 27 26 26 27 27 27 27 27 28 29 30 30 31 31 32 33 33 34 34 35 36 36 37 38 38 39 39 40
34 32 31 30 30 30 29 28 27 27 27 27 26 26 26 27 27 28 29 30 31 31 32 33 33 34 35 35 36 37 37 38 38 38 39 40 40 41
32 31 31 30 29 29 28 28 27 27 27 27 27 27 28 29 29 30 31 32 33 33 33 34 34 35 35 36 37 38 38 38 39 39 40 40 42 42
31 31 30 30 29 29 28 28 28 27 27 28 28 29 30 31 32 32 33 33 33 34 34 34 35 35 36 37 38 39 39 39 40 40 40 41 42 43
31 31 30 30 29 29 29 29 29 29 29 29 30 31 32 32 33 33 34 34 34 35 35 36 36 36 37 38 39 40 40 40 40 41 41 42 43 44
31 30 30 30 30 30 29 29 30 30 30 31 32 33 33 34 34 34 34 35 35 36 36 37 37 37 38 38 39 41 41 41 42 42 43 43 43 44
31 31 31 31 31 30 30 31 31 32 32 33 33 34 34 34 34 35 35 35 36 36 37 37 37 37 38 38 39 41 42 42 42 42 43 43 43 44
32 32 31 31 31 31 31 32 32 33 33 33 34 34 34 34 35 35 36 36 36 37 37 38 38 38 38 39 40 41 42 43 43 43 44 44 44 44
33 32 32 31 32 32 32 32 33 33 34 34 34 34 34 35 35 35 36 36 36 37 37 38 38 39 39 40 41 42 44 45 45 46 46 46 45 44